This is the latest recevied weather packets stored in our database for station/object DG5TS-10. If no packets are shown the sender has not sent any weather packets the latest 10 day(s).
| Time | Temp. | Humidity | Pressure | Rain* | Wind** | Luminosity | Snow |
|---|---|---|---|---|---|---|---|
| 1777882234 | 26.11° C | 25% | 1014.4 hPa | - | - | - | - |
| 1777881334 | 25° C | 27% | 1014.5 hPa | - | - | - | - |
| 1777880433 | 24.44° C | 27% | 1014.3 hPa | - | - | - | - |
| 1777879533 | 23.89° C | 28% | 1014.2 hPa | - | - | - | - |
| 1777878633 | 22.78° C | 29% | 1014.1 hPa | - | - | - | - |
| 1777877733 | 21.11° C | 31% | 1014 hPa | - | - | - | - |
| 1777876833 | 21.11° C | 31% | 1013.9 hPa | - | - | - | - |
| 1777875933 | 20.56° C | 31% | 1013.7 hPa | - | - | - | - |
| 1777875033 | 20.56° C | 31% | 1013.7 hPa | - | - | - | - |
| 1777874132 | 20° C | 32% | 1013.7 hPa | - | - | - | - |
| 1777873232 | 19.44° C | 32% | 1013.4 hPa | - | - | - | - |
| 1777872332 | 19.44° C | 32% | 1013.4 hPa | - | - | - | - |
| 1777871431 | 19.44° C | 32% | 1013.3 hPa | - | - | - | - |
| 1777870531 | 18.33° C | 34% | 1013.3 hPa | - | - | - | - |
| 1777869631 | 17.78° C | 34% | 1013.1 hPa | - | - | - | - |
| 1777868731 | 17.78° C | 34% | 1013 hPa | - | - | - | - |
| 1777867831 | 17.78° C | 34% | 1012.9 hPa | - | - | - | - |
| 1777866930 | 17.78° C | 34% | 1012.9 hPa | - | - | - | - |
| 1777866030 | 17.78° C | 34% | 1013 hPa | - | - | - | - |
| 1777865130 | 17.78° C | 35% | 1012.9 hPa | - | - | - | - |
| 1777864230 | 17.78° C | 34% | 1013 hPa | - | - | - | - |
| 1777863330 | 17.78° C | 34% | 1012.9 hPa | - | - | - | - |
| 1777862430 | 18.33° C | 33% | 1012.8 hPa | - | - | - | - |
| 1777861530 | 18.33° C | 33% | 1012.8 hPa | - | - | - | - |
| 1777860629 | 18.33° C | 33% | 1012.7 hPa | - | - | - | - |
* Rain since midnight (hover to see other rain measurements)
** Current wind speed in m/s (hover to see current wind gust speed)